TimeCEST,TemperatureF,Dew PointF,Humidity,Sea Level PressureIn,VisibilityMPH,Wind Direction,Wind SpeedMPH,Gust SpeedMPH,PrecipitationIn,Events,Conditions,WindDirDegrees,DateUTC
1:55 AM,41.0,39.2,93,30.24,0.1,WNW,4.6,-,N/A,Fog-Rain,Light Rain,300,2013-10-08 23:55:00
2:00 AM,42,39,87,,0,WNW,4.6,,,Rain,Light Rain,300,2013-10-09 00:00:00
4:55 AM,41.0,37.4,87,30.24,0.1,WSW,3.5,-,N/A,Fog,Fog,250,2013-10-09 02:55:00
5:00 AM,42,38,80,,0,WSW,3.5,,,Fog,Heavy Fog,250,2013-10-09 03:00:00
5:55 AM,41.0,37.4,87,30.21,0.1,West,2.3,-,N/A,Fog,Fog,270,2013-10-09 03:55:00
6:55 AM,41.0,37.4,87,30.21,0.1,ESE,3.5,-,N/A,Fog,Fog,120,2013-10-09 04:55:00
7:55 AM,41.0,37.4,87,30.21,0.1,Calm,Calm,-,N/A,Fog,Fog,0,2013-10-09 05:55:00
8:00 AM,41,37,80,,0,Calm,Calm,,,Fog,Heavy Fog,,2013-10-09 06:00:00
8:55 AM,41.0,37.4,87,30.21,0.2,West,2.3,-,N/A,Fog,Fog,260,2013-10-09 06:55:00
9:55 AM,41.0,37.4,87,30.21,0.2,South,2.3,-,N/A,Fog-Rain,Light Rain,180,2013-10-09 07:55:00
10:55 AM,42.8,39.2,87,30.21,0.2,SE,8.1,-,N/A,Fog-Rain,Light Rain,130,2013-10-09 08:55:00
11:00 AM,43,39,79,,0,SE,8.1,,,Rain,Light Rain,130,2013-10-09 09:00:00
11:55 AM,42.8,39.2,87,30.21,0.1,SE,8.1,-,N/A,Fog,Fog,130,2013-10-09 09:55:00
12:55 PM,42.8,39.2,87,30.21,0.2,ESE,5.8,-,N/A,Fog-Rain,Light Rain,120,2013-10-09 10:55:00
1:55 PM,42.8,39.2,87,30.18,0.1,SE,6.9,-,N/A,Fog-Rain,Light Rain,140,2013-10-09 11:55:00
2:00 PM,43,39,80,,0,SE,6.9,,,Rain,Light Rain,140,2013-10-09 12:00:00
2:55 PM,42.8,39.2,87,30.18,0.1,SE,5.8,-,N/A,Fog-Rain,Light Rain,130,2013-10-09 12:55:00
3:55 PM,41.0,37.4,87,30.15,0.1,SE,9.2,-,N/A,Fog-Rain,Light Rain,130,2013-10-09 13:55:00
4:55 PM,41.0,37.4,87,30.15,0.1,SE,6.9,-,N/A,Fog-Rain,Light Rain,140,2013-10-09 14:55:00
5:00 PM,41,38,85,,0,SE,6.9,,,Rain,Light Rain,140,2013-10-09 15:00:00
5:55 PM,41.0,37.4,87,30.12,0.1,SE,8.1,-,N/A,Fog,Fog,130,2013-10-09 15:55:00
6:55 PM,41.0,37.4,87,30.09,0.1,ESE,5.8,-,N/A,Fog,Fog,120,2013-10-09 16:55:00
7:55 PM,41.0,37.4,87,30.09,0.1,SE,8.1,-,N/A,Fog,Fog,130,2013-10-09 17:55:00
8:00 PM,41,37,82,,0,SE,8.1,,,Fog,Heavy Fog,130,2013-10-09 18:00:00
10:55 PM,41.0,37.4,87,30.09,0.1,ESE,3.5,-,N/A,Fog-Rain,Light Rain,120,2013-10-09 20:55:00
11:00 PM,41,37,80,,0,ESE,3.5,,,Rain,Light Rain,120,2013-10-09 21:00:00